Wind_Speed
25 26 26 26 27 27 27 27 26 26 26 26 26 26 26 26 26 26 27 26 26 26 25 25 25 26 25 25 25 24 24 26 26 24 24 24 24 23 24 24 23 23 23
27 27 27 27 28 28 28 28 28 28 27 27 28 27 27 26 27 27 28 28 28 28 28 27 27 27 28 27 27 26 26 26 27 26 26 25 25 25 25 25 25 24 24
28 28 28 29 28 28 28 29 29 29 29 29 29 28 27 27 27 28 28 29 29 30 30 30 29 29 29 28 28 28 28 28 28 29 28 28 27 26 26 26 26 25 25
28 28 29 29 29 28 29 30 30 30 29 30 30 29 29 28 28 29 29 30 30 31 31 31 31 31 30 29 29 29 29 30 30 30 30 30 29 29 29 28 28 27 27
29 29 30 30 30 30 30 31 31 30 30 31 31 31 31 30 31 31 31 31 32 33 33 33 32 33 32 31 31 31 31 31 31 31 31 31 31 31 31 30 30 30 29
30 30 30 31 31 31 31 31 31 31 31 31 32 32 32 32 32 32 31 32 32 33 34 33 33 34 34 34 34 33 33 33 33 33 32 32 32 32 33 32 32 32 31
30 30 31 32 32 32 32 31 32 32 32 32 33 33 33 34 33 32 33 33 33 33 34 34 35 35 36 36 35 36 36 35 34 34 34 33 34 33 34 34 34 34 33
29 30 31 32 32 32 32 32 32 33 33 33 33 33 33 34 33 33 33 33 33 33 34 35 35 36 37 37 37 36 36 36 36 36 36 35 36 36 35 35 35 35 35
30 30 30 31 32 32 31 31 31 32 33 33 33 34 34 34 32 33 33 33 33 34 35 36 36 36 36 37 38 39 38 37 37 37 37 37 37 37 36 35 35 34 35
29 29 29 30 30 30 31 32 32 33 33 32 33 33 33 33 33 32 33 33 34 34 35 36 36 36 36 37 38 39 39 38 37 38 38 38 38 38 37 37 37 36 34
29 29 29 29 29 30 31 32 32 32 32 31 32 32 32 33 33 33 33 33 34 35 35 35 35 35 36 36 36 38 39 39 38 38 39 39 39 38 38 37 36 36 36
28 28 28 29 30 31 31 31 31 31 31 31 31 31 31 31 31 32 33 33 33 34 35 35 34 34 34 35 35 37 38 39 38 38 39 39 38 38 38 39 38 38 37
27 28 28 29 30 31 31 30 31 31 30 30 30 30 30 30 30 31 31 32 32 33 33 33 33 33 34 35 35 35 37 38 38 39 39 40 39 39 40 40 40 39 38
26 28 28 28 29 29 29 29 29 29 28 29 29 29 29 30 30 30 30 30 30 30 30 31 32 32 33 34 35 36 37 37 37 38 39 40 40 41 41 41 40 40 40
25 26 26 27 28 27 27 27 26 26 26 26 27 27 27 28 28 28 28 28 28 28 29 30 30 31 32 33 34 35 36 37 37 38 38 39 40 40 41 41 40 41 41
24 25 25 26 26 25 25 25 25 25 24 24 24 25 25 26 26 26 26 27 27 28 28 28 28 30 31 32 33 34 35 36 37 37 37 38 38 40 41 41 41 41 41
23 24 24 24 24 24 23 23 23 23 23 23 24 24 24 25 25 25 26 26 27 27 28 28 28 29 29 30 31 32 34 35 36 36 36 36 37 38 39 40 40 41 41
22 22 22 23 23 23 23 22 22 22 22 22 24 24 22 22 23 24 24 25 25 26 27 27 27 28 29 30 30 31 32 32 33 33 34 35 36 37 38 38 39 39 39
21 21 22 22 22 23 22 22 22 22 22 22 22 22 21 20 21 22 23 23 23 24 25 26 26 27 27 28 28 29 29 29 30 31 33 34 35 36 37 38 38 39 39
20 21 21 21 21 22 22 22 21 21 21 21 21 21 20 20 19 20 21 21 22 23 24 25 26 25 26 27 27 28 28 28 29 30 31 32 34 35 36 37 38 38 39
20 20 21 21 21 21 21 21 21 20 19 19 20 20 20 20 20 20 21 21 22 22 23 24 24 24 24 25 26 26 27 27 29 29 30 30 31 32 34 35 36 37 38
20 20 20 20 20 21 20 19 18 19 18 18 19 19 20 20 20 21 21 21 22 22 22 22 23 23 23 23 24 25 26 27 27 28 29 29 30 30 32 33 33 34 35
19 19 19 19 19 19 19 18 18 17 17 18 18 19 19 20 20 20 20 21 21 21 21 22 22 22 22 22 23 23 24 26 26 27 27 27 29 29 30 31 31 32 33
19 18 18 17 17 17 17 17 17 17 17 17 17 18 18 19 19 20 19 19 19 20 20 20 20 20 20 20 21 21 22 23 24 25 25 26 27 28 29 30 31 31 32
18 18 17 17 17 17 18 17 17 17 17 17 17 17 18 18 18 18 18 18 18 19 19 19 19 19 19 20 21 21 21 22 23 24 24 25 26 27 29 30 31 31 31
17 17 17 17 17 17 18 17 17 18 18 18 18 18 17 17 17 18 18 18 18 18 18 18 18 19 20 20 21 21 21 22 23 23 24 26 26 27 28 30 31 31 31
Wind_Direction
284 284 283 283 282 282 282 281 280 282 282 282 280 279 277 274 272 272 272 269 267 267 266 265 264 263 261 259 257 253 250 248 244 241 242 242 241 240 239 239 239 239 239
282 282 282 282 282 281 282 282 281 281 281 281 279 277 276 275 273 273 271 269 268 267 265 263 263 264 263 262 259 254 252 251 246 244 243 242 242 242 241 239 240 240 240
282 282 282 280 281 281 282 281 281 280 279 280 278 277 276 275 274 272 272 269 267 266 265 263 262 263 263 263 260 258 255 253 248 246 245 244 243 243 242 240 240 240 240
281 282 283 282 280 279 281 281 280 280 280 280 279 277 274 273 272 272 271 270 267 266 264 262 262 262 261 260 260 258 256 254 252 250 248 246 245 244 242 241 241 241 241
281 282 282 282 279 279 280 281 281 280 281 281 279 276 273 272 272 271 270 269 268 265 264 262 262 261 259 259 258 258 256 254 254 252 249 248 246 244 242 242 241 241 242
282 282 282 282 280 280 280 281 281 282 282 281 280 277 274 272 271 269 268 268 268 267 265 263 262 260 259 258 257 255 255 254 254 252 252 250 247 246 244 243 243 242 242
284 283 284 283 282 282 283 282 281 281 282 281 280 278 276 274 271 270 269 268 267 267 266 264 263 261 259 258 256 253 253 253 253 252 252 251 249 248 247 245 244 243 243
285 284 284 284 284 284 284 284 283 282 282 283 281 278 276 275 273 271 270 268 267 267 267 266 265 262 260 258 256 254 253 254 253 252 251 251 249 248 248 248 245 245 243
284 285 285 285 284 285 285 284 284 283 282 282 280 279 277 276 272 270 270 269 268 268 266 265 265 264 261 258 255 254 253 253 252 251 251 252 248 247 248 248 247 246 246
285 286 286 286 286 286 287 286 284 283 282 281 279 277 276 275 273 270 269 269 269 269 267 266 265 262 261 259 256 254 252 252 251 251 251 251 249 247 247 248 248 247 247
287 287 286 288 288 289 288 287 286 284 283 281 280 278 276 275 275 272 271 269 269 270 269 267 265 262 260 258 256 254 252 250 251 250 250 250 249 247 247 247 249 247 247
289 287 286 289 290 290 289 287 286 285 283 282 280 278 277 276 274 273 272 270 270 271 270 269 266 264 261 258 257 255 253 250 250 250 249 249 249 248 248 247 248 247 247
290 288 287 289 290 290 289 287 286 285 283 282 281 279 278 277 276 275 274 273 272 271 271 270 267 265 263 260 257 255 253 251 249 249 249 249 249 248 247 247 247 246 247
293 292 291 292 292 291 289 288 287 285 283 282 281 279 278 277 276 277 276 274 272 271 271 269 267 265 264 262 259 257 254 252 250 249 249 249 249 248 246 246 247 247 247
296 296 294 294 294 292 289 288 287 286 286 285 283 280 278 277 278 278 276 276 273 271 270 269 267 265 264 262 259 257 255 252 250 250 251 250 250 248 247 246 247 246 247
300 301 298 297 296 295 291 290 290 289 289 287 285 283 281 279 279 280 279 278 275 273 271 270 270 269 267 265 263 260 255 252 251 252 252 251 250 248 247 247 246 246 246
303 304 304 302 301 299 297 295 292 290 290 289 287 285 283 282 281 281 280 277 275 275 274 271 271 272 270 267 266 262 257 254 252 252 252 252 251 250 249 247 245 246 245
307 307 307 307 304 302 299 296 294 293 291 289 287 286 284 283 283 282 281 278 277 276 275 273 273 273 272 270 267 264 260 256 253 253 253 253 252 252 251 248 246 246 246
309 309 309 309 307 306 302 299 297 297 294 290 290 290 289 287 287 286 284 281 279 277 276 274 273 273 273 273 269 265 261 258 254 254 254 253 252 251 250 248 247 247 247
312 312 311 311 309 307 305 303 300 298 295 293 293 293 292 290 289 289 288 285 282 279 276 275 273 272 270 271 268 264 261 259 256 256 256 254 252 251 250 249 248 247 248
314 312 311 311 310 310 308 306 303 299 296 296 295 293 291 289 287 288 289 287 285 282 279 277 274 272 271 270 268 264 261 260 257 256 257 256 253 251 251 250 250 249 248
318 317 316 315 314 312 312 311 308 304 300 297 295 294 293 290 288 288 288 287 285 284 281 279 276 275 272 270 268 266 265 262 259 258 258 256 255 252 251 251 251 249 248
324 323 321 319 318 318 318 318 318 312 305 301 301 300 297 296 292 291 291 289 288 286 282 279 276 274 271 269 267 267 266 263 259 259 258 256 254 253 251 250 249 249 249
328 327 325 324 326 327 328 326 322 319 315 310 307 304 302 299 299 296 296 295 293 291 288 283 280 275 270 269 270 269 266 263 260 259 259 258 255 254 252 252 251 251 250
332 332 330 331 331 332 333 329 326 325 322 318 316 313 309 307 305 304 301 298 296 293 291 288 286 281 275 273 271 269 268 266 262 260 259 259 258 256 254 253 253 251 250
333 334 334 333 333 332 332 331 328 327 325 322 319 317 315 313 308 308 306 302 299 297 292 289 289 287 284 280 277 273 270 268 265 262 261 260 259 258 256 254 253 251 250
Height
5847 5845 5844 5842 5841 5839 5839 5838 5837 5836 5835 5834 5833 5833 5832 5831 5831 5831 5831 5831 5831 5831 5831 5831 5831 5831 5832 5833 5833 5833 5834 5836 5837 5839 5840 5842 5843 5845 5846 5848 5849 5851 5852
5841 5840 5838 5837 5835 5834 5833 5832 5831 5830 5829 5828 5827 5826 5826 5825 5825 5825 5824 5824 5824 5825 5825 5825 5825 5825 5826 5826 5827 5828 5828 5830 5831 5833 5835 5836 5838 5839 5841 5843 5844 5846 5847
5835 5834 5832 5831 5830 5828 5827 5826 5825 5823 5822 5821 5820 5819 5819 5818 5818 5818 5817 5817 5817 5817 5818 5818 5819 5819 5819 5820 5821 5822 5823 5824 5825 5827 5828 5830 5832 5834 5835 5837 5839 5840 5842
5829 5828 5826 5825 5823 5822 5821 5819 5818 5816 5815 5814 5813 5813 5812 5811 5811 5810 5810 5810 5810 5810 5811 5811 5811 5812 5813 5813 5814 5815 5816 5817 5818 5820 5822 5824 5825 5827 5829 5831 5833 5835 5836
5823 5821 5820 5818 5816 5815 5814 5812 5811 5810 5808 5807 5806 5805 5804 5803 5803 5803 5802 5802 5802 5802 5802 5803 5804 5804 5805 5806 5807 5808 5809 5810 5811 5813 5814 5816 5818 5820 5822 5824 5826 5828 5830
5816 5814 5813 5811 5809 5808 5807 5805 5804 5803 5801 5800 5798 5797 5796 5795 5794 5794 5794 5794 5794 5794 5794 5795 5795 5796 5797 5798 5799 5800 5801 5802 5803 5805 5807 5808 5810 5812 5814 5816 5819 5821 5823
5809 5807 5805 5804 5802 5801 5799 5798 5796 5795 5794 5792 5790 5789 5788 5786 5786 5785 5785 5785 5785 5785 5785 5786 5786 5787 5788 5789 5790 5791 5793 5794 5795 5797 5798 5800 5802 5804 5806 5809 5811 5814 5816
5802 5800 5798 5796 5795 5793 5791 5790 5788 5787 5785 5784 5782 5781 5780 5779 5777 5777 5776 5776 5776 5776 5776 5777 5777 5777 5778 5779 5781 5782 5783 5785 5787 5788 5790 5791 5794 5796 5798 5800 5803 5806 5808
5795 5792 5790 5789 5787 5785 5783 5781 5780 5779 5777 5775 5773 5772 5771 5770 5769 5769 5768 5767 5767 5767 5767 5767 5767 5768 5769 5769 5771 5772 5774 5776 5777 5779 5781 5783 5785 5788 5790 5792 5795 5797 5800
5787 5785 5783 5781 5779 5777 5775 5773 5772 5770 5768 5766 5765 5763 5762 5761 5760 5760 5759 5758 5758 5758 5758 5758 5758 5758 5759 5759 5760 5762 5764 5766 5768 5769 5771 5773 5776 5778 5781 5784 5786 5789 5791
5780 5777 5776 5774 5772 5770 5767 5765 5763 5762 5760 5758 5757 5755 5753 5752 5751 5751 5750 5749 5749 5748 5748 5748 5748 5748 5749 5749 5750 5752 5754 5756 5758 5759 5761 5763 5766 5769 5772 5775 5778 5780 5783
5772 5770 5768 5766 5764 5762 5759 5757 5755 5753 5751 5750 5748 5746 5745 5744 5743 5742 5741 5740 5740 5739 5738 5738 5738 5738 5739 5739 5740 5742 5743 5745 5748 5750 5752 5754 5757 5759 5762 5766 5769 5771 5774
5765 5763 5761 5758 5756 5753 5751 5749 5747 5745 5743 5741 5739 5738 5736 5735 5734 5733 5732 5731 5731 5730 5729 5728 5728 5728 5728 5729 5730 5732 5733 5735 5737 5740 5742 5744 5747 5749 5752 5755 5758 5761 5764
5758 5756 5753 5751 5748 5745 5743 5740 5738 5736 5734 5733 5731 5729 5728 5727 5725 5724 5723 5722 5722 5721 5720 5720 5719 5719 5719 5719 5720 5721 5723 5725 5727 5730 5732 5734 5737 5739 5742 5745 5748 5751 5754
5752 5749 5746 5743 5740 5737 5735 5732 5730 5728 5726 5725 5723 5722 5720 5719 5717 5716 5715 5714 5713 5713 5712 5711 5710 5709 5709 5709 5710 5711 5713 5715 5717 5719 5721 5723 5726 5729 5732 5735 5738 5742 5744
5746 5743 5740 5736 5733 5730 5727 5725 5723 5721 5719 5717 5716 5714 5712 5711 5709 5708 5707 5706 5705 5704 5703 5702 5701 5701 5700 5700 5700 5701 5702 5704 5706 5709 5711 5713 5716 5718 5721 5725 5728 5732 5735
5740 5737 5733 5730 5727 5724 5721 5718 5716 5714 5712 5711 5709 5707 5705 5704 5702 5701 5699 5698 5697 5696 5695 5694 5693 5692 5691 5691 5691 5692 5693 5694 5696 5699 5701 5703 5705 5708 5711 5714 5718 5721 5725
5734 5731 5728 5724 5721 5718 5715 5712 5710 5708 5706 5704 5702 5700 5698 5697 5695 5693 5692 5690 5689 5688 5687 5686 5685 5684 5683 5683 5683 5683 5684 5685 5687 5689 5691 5693 5696 5698 5701 5704 5708 5711 5715
5729 5726 5722 5719 5716 5712 5709 5706 5704 5701 5699 5698 5696 5694 5692 5690 5688 5687 5685 5683 5682 5681 5680 5679 5678 5677 5676 5675 5675 5675 5675 5676 5678 5680 5682 5684 5686 5689 5692 5695 5698 5702 5705
5725 5721 5718 5714 5711 5707 5704 5701 5698 5696 5694 5692 5690 5688 5686 5684 5682 5681 5679 5677 5676 5674 5673 5672 5671 5670 5669 5667 5667 5667 5668 5669 5670 5672 5673 5675 5677 5679 5682 5685 5689 5692 5695
5720 5717 5713 5710 5706 5702 5699 5696 5693 5690 5688 5686 5684 5682 5680 5678 5677 5675 5673 5671 5670 5668 5666 5665 5664 5662 5662 5661 5660 5660 5661 5661 5662 5664 5665 5667 5669 5671 5673 5676 5679 5682 5685
5716 5712 5709 5705 5702 5698 5694 5691 5688 5685 5683 5681 5679 5677 5675 5673 5671 5669 5667 5665 5663 5662 5660 5658 5657 5656 5655 5654 5654 5653 5653 5654 5655 5657 5657 5659 5660 5662 5664 5667 5669 5672 5675
5712 5708 5705 5701 5698 5694 5691 5687 5684 5681 5678 5676 5674 5672 5669 5667 5665 5663 5661 5659 5657 5655 5653 5652 5650 5649 5649 5648 5647 5647 5647 5647 5648 5648 5649 5651 5652 5654 5656 5658 5660 5663 5665
5710 5706 5702 5698 5695 5691 5687 5684 5681 5677 5674 5672 5669 5667 5664 5662 5659 5657 5655 5653 5651 5649 5647 5645 5644 5643 5642 5642 5641 5641 5640 5640 5640 5641 5642 5643 5644 5646 5648 5650 5652 5654 5656
5707 5703 5699 5696 5692 5689 5685 5681 5678 5674 5671 5668 5665 5662 5660 5657 5655 5652 5650 5648 5645 5643 5641 5639 5638 5637 5636 5635 5635 5635 5634 5634 5634 5634 5635 5636 5637 5638 5640 5641 5643 5645 5647
5705 5701 5698 5694 5690 5686 5682 5679 5675 5671 5668 5665 5662 5658 5655 5653 5650 5648 5645 5643 5641 5638 5636 5634 5633 5631 5630 5629 5629 5628 5628 5628 5628 5628 5628 5629 5629 5630 5631 5632 5634 5635 5637